Regional Weather Roundup
Issued by NWS

Home | Current Version | Previous Version | Text Only | Print | Product List | Glossary On
Versions: 1 2 3 4 5 6 7 8 9 10 11 12 13 14 15 16 17 18 19 20 21 22 23 24 25 26 27 28 29 30 31 32 33 34 35 36 37 38 39 40 41 42 43 44 45 46 47 48 49 50
433
ASUS45 KSLC 142310
RWRUT

UTAH REGIONAL WEATHER ROUNDUP
NATIONAL WEATHER SERVICE SALT LAKE CITY UT
400 PM MST SUN FEB 14 2016

UTZ001>011-023>025-150000-

NORTHERN UTAH

CITY           SKY/WX    TMP DP  RH WIND       PRES   REMARKS
BRIGHAM CITY   CLOUDY    33  32  95 CALM      30.26R VSB 1
HILL AFB       CLOUDY    36  36 100 VRB2      30.24R
LOGAN          LGT RAIN  33  32  96 E3        30.24S FOG
OGDEN          CLOUDY    35  34  96 N3        30.24R FOG
PROVO AIRPORT  CLOUDY    34  28  80 CALM      30.27  FOG
SALT LAKE CITY CLOUDY    43  36  76 S5        30.25R HAZE
VERNAL         SUNNY     40  21  46 E3        30.07F
WENDOVER       CLOUDY    43  34  70 S3        30.25R
HEBER CITY     LGT SNOW  32  32 100 CALM      30.21R
WEST JORDAN    CLOUDY    37  34  87 S5        30.26R WCI  34

$$

UTZ012>022-026-027-150000-

SOUTHERN/CENTRAL UTAH

CITY           SKY/WX    TMP DP  RH WIND       PRES   REMARKS
BLANDING         N/A     46  28  49 SE3       30.17S
BRYCE CANYON   MOSUNNY   42  20  41 NW26G33   30.19S
CEDAR CITY     MOSUNNY   49  25  39 N7        30.20R
DELTA          PTSUNNY   34  27  75 S7        30.26F WCI  27
HANKSVILLE     SUNNY     54  32  43 NE3       30.12R
MILFORD        SUNNY     33  25  72 N8        30.23F WCI  26
MOAB/CYNLANDS  SUNNY     52  35  52 W6        30.09R
PRICE          MOSUNNY   48  27  44 NW15G21   30.11R
ST GEORGE      PTCLDY    66  25  20 CALM      30.11F
KANAB          MOSUNNY   66  14  13 S3        30.13F

$$

REGIONAL REPORTS     COLORADO/ARIZONA

CITY           SKY/WX    TMP DP  RH WIND       PRES   REMARKS
CRAIG, CO      CLOUDY    31  28  89 S8        30.07F WCI  23
GRAND JUNCTION CLOUDY    41  32  70 NW9       30.10R
RIFLE          CLOUDY    37  25  61 W5        30.10S WCI  33
MONTROSE       CLOUDY    44  25  47 NW5       30.10R
CORTEZ         CLOUDY    51  20  29 NW8       30.10S
PAGE, AZ       SUNNY     58  25  28 NE5       30.06F
GRAND CANYON   MOSUNNY   57   4  12 NW9       30.16F
KINGMAN        CLOUDY    67  12  12 N18       30.10F
FLAGSTAFF      PTSUNNY   56   8  14 VRB5      30.17R

$$

REGIONAL REPORTS    NEVADA/IDAHO/WYOMING

CITY           SKY/WX    TMP DP  RH WIND       PRES   REMARKS
LAS VEGAS, NV  PTSUNNY   74  14  10 N17       30.05F
ELY            SUNNY     43  30  60 N12       30.27S
ELKO           PTSUNNY   46  33  60 S7        30.29S
POCATELLO, ID  CLOUDY    38  35  89 SW18      30.20S WCI  28
BURLEY         PTSUNNY   45  38  76 W20G29    30.19S
EVANSTON, WY   CLOUDY    33  28  81 W23       30.17S WCI  21
ROCK SPRINGS   CLOUDY    35  28  75 W31G37    30.06R WCI  22
KEMMERER       CLOUDY    32  30  93 W23G33    30.12R WCI  19

$$




USA.gov is the U.S. government's official web portal to all federal, state and local government web resources and services.